,,,PA_Meas_PMT16A,,PR_Meas_QMR101_102,,RH_Meas_QMH101,,SR_Meas_QMS101,,TA_Meas_QMH101,,GenWind,,GenWind,
date,time,status,PA,status,PR,status,RH,status,SR,status,TA,status,DirAvg,status,SpdAvg,
2010-02-20, 00:00:05,VALID,1011.72,VALID,0,VALID,92.0733,VALID,0,VALID,24.0448,VALID,223,VALID,0.429688,
2010-02-20, 00:01:05,VALID,1011.74,VALID,0,VALID,92.0657,VALID,0,VALID,24.0429,VALID,200,VALID,0.705859,
2010-02-20, 00:02:05,VALID,1011.71,VALID,0,VALID,92.0505,VALID,0,VALID,24.0448,VALID,193,VALID,0.619141,
2010-02-20, 00:03:05,VALID,1011.72,VALID,0,VALID,92.0657,VALID,0.105969,VALID,24.0643,VALID,193,VALID,0.332422,
2010-02-20, 00:04:05,VALID,1011.71,VALID,0,VALID,92.0733,VALID,0,VALID,24.0643,VALID,193,VALID,0.121484,
2010-02-20, 00:05:05,VALID,1011.74,VALID,0,VALID,92.0352,VALID,0,VALID,24.0837,VALID,193,VALID,0.0773437,
2010-02-20, 00:06:05,VALID,1011.71,VALID,0,VALID,92.0581,VALID,0,VALID,24.0837,VALID,193,VALID,0.273828,
2010-02-20, 00:07:05,VALID,1011.73,VALID,0,VALID,92.0428,VALID,0,VALID,24.0837,VALID,193,VALID,0.205469,
2010-02-20, 00:08:05,VALID,1011.74,VALID,0,VALID,92.0657,VALID,0,VALID,24.0624,VALID,193,VALID,0,
2010-02-20, 00:09:05,VALID,1011.76,VALID,0,VALID,92.0505,VALID,0,VALID,24.1032,VALID,193,VALID,0.275,
2010-02-20, 00:10:05,VALID,1011.79,VALID,0,VALID,92.0581,VALID,0,VALID,24.1032,VALID,193,VALID,0.183203,
2010-02-20, 00:11:05,VALID,1011.8,VALID,0,VALID,92.0657,VALID,0,VALID,24.1227,VALID,193,VALID,0,
2010-02-20, 00:12:05,VALID,1011.76,VALID,0,VALID,92.0657,VALID,0,VALID,24.1227,VALID,193,VALID,0,
2010-02-20, 00:13:05,VALID,1011.76,VALID,0,VALID,92.0581,VALID,0,VALID,24.1227,VALID,193,VALID,0,
2010-02-20, 00:14:05,VALID,1011.77,VALID,0,VALID,92.0505,VALID,0,VALID,24.1227,VALID,193,VALID,0,
2010-02-20, 00:15:05,VALID,1011.78,VALID,0,VALID,92.0505,VALID,0,VALID,24.1422,VALID,195,VALID,0.155859,
2010-02-20, 00:16:05,VALID,1011.75,VALID,0,VALID,92.0886,VALID,0,VALID,24.1617,VALID,290,VALID,0.571484,
2010-02-20, 00:17:05,VALID,1011.75,VALID,0,VALID,92.1572,VALID,0,VALID,24.1032,VALID,336,VALID,0.353125,
2010-02-20, 00:18:05,VALID,1011.75,VALID,0,VALID,92.1649,VALID,0,VALID,24.0819,VALID,309,VALID,0.835156,
2010-02-20, 00:19:05,VALID,1011.73,VALID,0,VALID,92.1649,VALID,0,VALID,24.1227,VALID,293,VALID,0.24375,
2010-02-20, 00:20:05,VALID,1011.69,VALID,0,VALID,92.1801,VALID,0,VALID,24.1032,VALID,293,VALID,0,
2010-02-20, 00:21:05,VALID,1011.67,VALID,0,VALID,92.1572,VALID,0,VALID,24.1227,VALID,293,VALID,0,
2010-02-20, 00:22:04,VALID,1011.65,VALID,0,VALID,92.1572,VALID,0,VALID,24.1422,VALID,293,VALID,0,
2010-02-20, 00:23:04,VALID,1011.61,VALID,0,VALID,92.1572,VALID,0,VALID,24.1422,VALID,293,VALID,0,
2010-02-20, 00:24:04,VALID,1011.57,VALID,0,VALID,92.1572,VALID,0,VALID,24.1422,VALID,293,VALID,0,
2010-02-20, 00:25:04,VALID,1011.53,VALID,0,VALID,92.1801,VALID,0,VALID,24.1227,VALID,293,VALID,0,
2010-02-20, 00:26:04,VALID,1011.52,VALID,0,VALID,92.1649,VALID,0,VALID,24.1422,VALID,293,VALID,0,
2010-02-20, 00:27:04,VALID,1011.49,VALID,0,VALID,92.142,VALID,0,VALID,24.1422,VALID,340,VALID,0.384766,
2010-02-20, 00:28:04,VALID,1011.49,VALID,0,VALID,92.142,VALID,0,VALID,24.1422,VALID,19,VALID,0.619141,
2010-02-20, 00:29:04,VALID,1011.48,VALID,0,VALID,92.1496,VALID,0,VALID,24.1422,VALID,27,VALID,0.737891,
2010-02-20, 00:30:04,VALID,1011.47,VALID,0,VALID,92.1496,VALID,0,VALID,24.1227,VALID,28,VALID,0.175781,
2010-02-20, 00:31:04,VALID,1011.48,VALID,0,VALID,92.142,VALID,0,VALID,24.1422,VALID,28,VALID,0,
2010-02-20, 00:32:04,VALID,1011.49,VALID,0,VALID,92.1801,VALID,0,VALID,24.1227,VALID,28,VALID,0,
2010-02-20, 00:33:04,VALID,1011.47,VALID,0,VALID,92.1725,VALID,0,VALID,24.0819,VALID,28,VALID,0,
2010-02-20, 00:34:04,VALID,1011.46,VALID,0,VALID,92.1572,VALID,0,VALID,24.1032,VALID,28,VALID,0,
2010-02-20, 00:35:04,VALID,1011.49,VALID,0,VALID,92.1572,VALID,0,VALID,24.1032,VALID,28,VALID,0,
2010-02-20, 00:36:04,VALID,1011.46,VALID,0,VALID,92.1572,VALID,0,VALID,24.1014,VALID,28,VALID,0,
2010-02-20, 00:37:04,VALID,1011.48,VALID,0,VALID,92.1649,VALID,0.105969,VALID,24.0819,VALID,28,VALID,0,
2010-02-20, 00:38:04,VALID,1011.47,VALID,0,VALID,92.1649,VALID,0.105969,VALID,24.1032,VALID,28,VALID,0,
2010-02-20, 00:39:04,VALID,1011.48,VALID,0,VALID,92.1725,VALID,0,VALID,24.0837,VALID,360,VALID,0.00234375,
2010-02-20, 00:40:04,VALID,1011.47,VALID,0,VALID,92.1649,VALID,0,VALID,24.1032,VALID,360,VALID,0.0960938,
2010-02-20, 00:41:04,VALID,1011.47,VALID,0,VALID,92.1877,VALID,0,VALID,24.0643,VALID,360,VALID,0.040625,
2010-02-20, 00:42:04,VALID,1011.45,VALID,0,VALID,92.1496,VALID,0,VALID,24.0837,VALID,360,VALID,0,
2010-02-20, 00:43:04,VALID,1011.42,VALID,0,VALID,92.1572,VALID,0,VALID,24.0837,VALID,360,VALID,0,
2010-02-20, 00:44:04,VALID,1011.43,VALID,0,VALID,92.1649,VALID,0,VALID,24.0837,VALID,360,VALID,0,
2010-02-20, 00:45:04,VALID,1011.38,VALID,0,VALID,92.1649,VALID,0,VALID,24.0643,VALID,360,VALID,0,
2010-02-20, 00:46:04,VALID,1011.38,VALID,0,VALID,92.1725,VALID,0,VALID,24.0643,VALID,39,VALID,0.252734,
2010-02-20, 00:47:04,VALID,1011.33,VALID,0,VALID,92.2106,VALID,0.105969,VALID,24.0253,VALID,60,VALID,0.234375,
2010-02-20, 00:48:04,VALID,1011.32,VALID,0,VALID,92.1954,VALID,0,VALID,23.9845,VALID,60,VALID,0.0472656,
2010-02-20, 00:49:04,VALID,1011.29,VALID,0,VALID,92.1649,VALID,0,VALID,24.0253,VALID,64,VALID,0.260156,
2010-02-20, 00:50:04,VALID,1011.29,VALID,0,VALID,92.2106,VALID,0,VALID,23.9863,VALID,44,VALID,0.311719,
2010-02-20, 00:51:04,VALID,1011.29,VALID,0,VALID,92.1954,VALID,0,VALID,24.0253,VALID,66,VALID,0.214453,
2010-02-20, 00:52:04,VALID,1011.25,VALID,0,VALID,92.1801,VALID,0,VALID,24.0253,VALID,62,VALID,0.324219,
2010-02-20, 00:53:04,VALID,1011.26,VALID,0,VALID,92.1877,VALID,0,VALID,24.0253,VALID,36,VALID,0.0140625,
2010-02-20, 00:54:04,VALID,1011.25,VALID,0,VALID,92.1877,VALID,0,VALID,24.0058,VALID,104,VALID,0.325391,
2010-02-20, 00:55:04,VALID,1011.25,VALID,0,VALID,92.2335,VALID,0,VALID,23.9845,VALID,101,VALID,0.321094,
2010-02-20, 00:56:04,VALID,1011.26,VALID,0,VALID,92.2182,VALID,0,VALID,23.9863,VALID,101,VALID,0.00820312,
2010-02-20, 00:57:04,VALID,1011.32,VALID,0,VALID,92.1877,VALID,0,VALID,23.9863,VALID,104,VALID,0.363672,
2010-02-20, 00:58:04,VALID,1011.32,VALID,0,VALID,92.1954,VALID,0,VALID,24.0058,VALID,104,VALID,0.213281,
2010-02-20, 00:59:04,VALID,1011.35,VALID,0,VALID,92.1725,VALID,0,VALID,24.004,VALID,104,VALID,0.464063,
2010-02-20, 01:00:04,VALID,1011.4,VALID,0,VALID,92.1877,VALID,0,VALID,24.0253,VALID,100,VALID,0.794531,
2010-02-20, 01:01:04,VALID,1011.43,VALID,0,VALID,92.203,VALID,0,VALID,24.0253,VALID,106,VALID,0.910156,
2010-02-20, 01:02:04,VALID,1011.47,VALID,0,VALID,92.2182,VALID,0,VALID,24.0448,VALID,99,VALID,1.11719,
2010-02-20, 01:03:04,VALID,1011.5,VALID,0,VALID,92.1954,VALID,0,VALID,24.0448,VALID,86,VALID,0.783594,
2010-02-20, 01:04:04,VALID,1011.52,VALID,0,VALID,92.203,VALID,0,VALID,24.0643,VALID,88,VALID,1.11016,
2010-02-20, 01:05:04,VALID,1011.49,VALID,0,VALID,92.2259,VALID,0,VALID,24.0643,VALID,91,VALID,0.999219,
2010-02-20, 01:06:04,VALID,1011.49,VALID,0,VALID,92.203,VALID,0,VALID,24.0837,VALID,82,VALID,0.875391,
2010-02-20, 01:07:04,VALID,1011.47,VALID,0,VALID,92.2335,VALID,0,VALID,24.0643,VALID,88,VALID,1.12969,
2010-02-20, 01:08:04,VALID,1011.47,VALID,0,VALID,92.2487,VALID,0,VALID,24.0643,VALID,83,VALID,1.09922,
2010-02-20, 01:09:04,VALID,1011.46,VALID,0,VALID,92.2411,VALID,0.105969,VALID,24.0643,VALID,73,VALID,1.12539,
2010-02-20, 01:10:04,VALID,1011.41,VALID,0,VALID,92.2411,VALID,0,VALID,24.0643,VALID,92,VALID,1.17383,
2010-02-20, 01:11:04,VALID,1011.44,VALID,0,VALID,92.2335,VALID,0,VALID,24.0643,VALID,69,VALID,0.326172,
2010-02-20, 01:12:04,VALID,1011.39,VALID,0,VALID,92.2411,VALID,0,VALID,24.0643,VALID,97,VALID,0.750781,
2010-02-20, 01:13:04,VALID,1011.35,VALID,0,VALID,92.264,VALID,0,VALID,24.0448,VALID,84,VALID,0.489453,
2010-02-20, 01:14:04,VALID,1011.37,VALID,0,VALID,92.2487,VALID,0,VALID,24.0253,VALID,87,VALID,0,
2010-02-20, 01:15:04,VALID,1011.34,VALID,0,VALID,92.2411,VALID,0,VALID,24.0448,VALID,24,VALID,0.465234,
2010-02-20, 01:16:04,VALID,1011.36,VALID,0,VALID,92.2487,VALID,0,VALID,24.0058,VALID,24,VALID,0.125391,
2010-02-20, 01:17:04,VALID,1011.34,VALID,0,VALID,92.2564,VALID,0,VALID,24.0271,VALID,40,VALID,0.557813,
2010-02-20, 01:18:04,VALID,1011.32,VALID,0,VALID,92.2487,VALID,0,VALID,24.0058,VALID,24,VALID,0.558203,
2010-02-20, 01:19:04,VALID,1011.34,VALID,0,VALID,92.2182,VALID,0,VALID,24.0058,VALID,22,VALID,0.0660156,
2010-02-20, 01:20:04,VALID,1011.35,VALID,0,VALID,92.2411,VALID,0,VALID,24.0058,VALID,22,VALID,0,
2010-02-20, 01:21:04,VALID,1011.33,VALID,0,VALID,92.2259,VALID,0,VALID,24.0058,VALID,36,VALID,0.194922,
2010-02-20, 01:22:04,VALID,1011.3,VALID,0,VALID,92.2106,VALID,0,VALID,24.0271,VALID,351,VALID,0.0539063,
2010-02-20, 01:23:04,VALID,1011.29,VALID,0,VALID,92.2487,VALID,0,VALID,24.0058,VALID,290,VALID,0,
2010-02-20, 01:24:04,VALID,1011.29,VALID,0,VALID,92.2259,VALID,0,VALID,24.0253,VALID,290,VALID,0,
2010-02-20, 01:25:04,VALID,1011.26,VALID,0,VALID,92.2411,VALID,0,VALID,24.0058,VALID,300,VALID,0,
2010-02-20, 01:26:04,VALID,1011.22,VALID,0,VALID,92.2411,VALID,0,VALID,24.0076,VALID,300,VALID,0,
2010-02-20, 01:27:04,VALID,1011.21,VALID,0,VALID,92.2487,VALID,0,VALID,23.9863,VALID,300,VALID,0,
2010-02-20, 01:28:04,VALID,1011.19,VALID,0,VALID,92.2487,VALID,0,VALID,24.0058,VALID,55,VALID,0.651953,
2010-02-20, 01:29:04,VALID,1011.17,VALID,0,VALID,92.2564,VALID,0.105969,VALID,23.9863,VALID,60,VALID,0.406641,
2010-02-20, 01:30:04,VALID,1011.14,VALID,0,VALID,92.2335,VALID,0,VALID,24.0058,VALID,74,VALID,0.741016,
2010-02-20, 01:31:04,VALID,1011.15,VALID,0,VALID,92.2182,VALID,0,VALID,24.0058,VALID,75,VALID,0.665625,
2010-02-20, 01:32:04,VALID,1011.15,VALID,0,VALID,92.2259,VALID,0,VALID,24.0253,VALID,72,VALID,0.610937,
2010-02-20, 01:33:04,VALID,1011.14,VALID,0,VALID,92.2564,VALID,0,VALID,24.0271,VALID,55,VALID,0.829297,
2010-02-20, 01:34:04,VALID,1011.14,VALID,0,VALID,92.2564,VALID,0,VALID,24.0058,VALID,59,VALID,0.502734,
2010-02-20, 01:35:04,VALID,1011.13,VALID,0,VALID,92.2564,VALID,0,VALID,23.9863,VALID,65,VALID,0.683203,
2010-02-20, 01:36:04,VALID,1011.13,VALID,0,VALID,92.2564,VALID,0,VALID,23.9863,VALID,32,VALID,0.0804688,
2010-02-20, 01:37:04,VALID,1011.1,VALID,0,VALID,92.2487,VALID,0,VALID,23.9863,VALID,32,VALID,0.34375,
2010-02-20, 01:38:04,VALID,1011.09,VALID,0,VALID,92.264,VALID,0,VALID,23.9863,VALID,28,VALID,0.219141,
2010-02-20, 01:39:04,VALID,1011.07,VALID,0,VALID,92.2792,VALID,0,VALID,23.9668,VALID,55,VALID,0.0105469,
2010-02-20, 01:40:04,VALID,1011.09,VALID,0,VALID,92.2487,VALID,0,VALID,23.9668,VALID,78,VALID,0.489844,
2010-02-20, 01:41:04,VALID,1011.11,VALID,0,VALID,92.2182,VALID,0,VALID,23.9863,VALID,87,VALID,0.557813,
2010-02-20, 01:42:04,VALID,1011.1,VALID,0,VALID,92.2411,VALID,0,VALID,23.9668,VALID,64,VALID,0.499609,
2010-02-20, 01:43:04,VALID,1011.13,VALID,0,VALID,92.2106,VALID,0,VALID,23.9863,VALID,89,VALID,0.514453,
2010-02-20, 01:44:04,VALID,1011.13,VALID,0,VALID,92.2106,VALID,0.105969,VALID,23.9863,VALID,89,VALID,0.682422,
2010-02-20, 01:45:04,VALID,1011.13,VALID,0,VALID,92.2182,VALID,0,VALID,23.9455,VALID,90,VALID,0.650781,
2010-02-20, 01:46:04,VALID,1011.1,VALID,0,VALID,92.2182,VALID,0,VALID,23.9863,VALID,96,VALID,0.756641,
2010-02-20, 01:47:04,VALID,1011.1,VALID,0,VALID,92.2182,VALID,0,VALID,24.0058,VALID,44,VALID,0.423047,
2010-02-20, 01:48:04,VALID,1011.05,VALID,0,VALID,92.2259,VALID,0,VALID,23.9863,VALID,67,VALID,0.327734,
2010-02-20, 01:49:04,VALID,1011.02,VALID,0,VALID,92.2182,VALID,0,VALID,23.9863,VALID,76,VALID,0.540625,
2010-02-20, 01:50:04,VALID,1010.96,VALID,0,VALID,92.2182,VALID,0,VALID,23.9863,VALID,96,VALID,0.325391,
2010-02-20, 01:51:04,VALID,1010.93,VALID,0,VALID,92.203,VALID,0,VALID,23.9668,VALID,94,VALID,0.516797,
2010-02-20, 01:52:04,VALID,1010.87,VALID,0,VALID,92.2411,VALID,0,VALID,23.9863,VALID,94,VALID,0.183984,
2010-02-20, 01:53:04,VALID,1010.84,VALID,0,VALID,92.2182,VALID,0,VALID,23.9863,VALID,59,VALID,0.427344,
2010-02-20, 01:54:04,VALID,1010.8,VALID,0,VALID,92.2182,VALID,0,VALID,23.9668,VALID,66,VALID,0.707812,
2010-02-20, 01:55:04,VALID,1010.78,VALID,0,VALID,92.2335,VALID,0,VALID,23.9668,VALID,85,VALID,0.950781,
2010-02-20, 01:56:04,VALID,1010.76,VALID,0,VALID,92.2182,VALID,0.105969,VALID,23.9668,VALID,79,VALID,0.181641,
2010-02-20, 01:57:04,VALID,1010.74,VALID,0,VALID,92.1954,VALID,0,VALID,23.9668,VALID,50,VALID,0.802734,
2010-02-20, 01:58:04,VALID,1010.76,VALID,0,VALID,92.2182,VALID,0,VALID,23.9863,VALID,72,VALID,0.555078,
2010-02-20, 01:59:04,VALID,1010.73,VALID,0,VALID,92.2106,VALID,0,VALID,23.9686,VALID,89,VALID,0.539063,
2010-02-20, 02:00:04,VALID,1010.74,VALID,0,VALID,92.1801,VALID,0,VALID,23.9863,VALID,84,VALID,0.710938,
2010-02-20, 02:01:04,VALID,1010.74,VALID,0,VALID,92.1954,VALID,0,VALID,23.9668,VALID,81,VALID,0.396094,
2010-02-20, 02:02:04,VALID,1010.7,VALID,0,VALID,92.1801,VALID,0,VALID,23.9863,VALID,93,VALID,0.593359,
2010-02-20, 02:03:04,VALID,1010.69,VALID,0,VALID,92.1649,VALID,0,VALID,24.0058,VALID,89,VALID,0.564453,
2010-02-20, 02:04:04,VALID,1010.65,VALID,0,VALID,92.1801,VALID,0,VALID,24.0058,VALID,82,VALID,0.698438,
2010-02-20, 02:05:04,VALID,1010.64,VALID,0,VALID,92.1954,VALID,0,VALID,23.9863,VALID,81,VALID,0.74375,
2010-02-20, 02:06:04,VALID,1010.62,VALID,0,VALID,92.2106,VALID,0,VALID,23.9863,VALID,67,VALID,1.31875,
2010-02-20, 02:07:04,VALID,1010.61,VALID,0,VALID,92.2182,VALID,0,VALID,23.9863,VALID,68,VALID,0.460156,
2010-02-20, 02:08:04,VALID,1010.63,VALID,0,VALID,92.2182,VALID,0,VALID,24.0058,VALID,72,VALID,0.431641,
2010-02-20, 02:09:04,VALID,1010.63,VALID,0,VALID,92.1725,VALID,0,VALID,24.0058,VALID,102,VALID,0.884375,
2010-02-20, 02:10:04,VALID,1010.6,VALID,0,VALID,92.1954,VALID,0,VALID,24.0058,VALID,94,VALID,1.46563,
2010-02-20, 02:11:04,VALID,1010.63,VALID,0,VALID,92.1649,VALID,0,VALID,24.0253,VALID,91,VALID,1.06133,
2010-02-20, 02:12:04,VALID,1010.59,VALID,0,VALID,92.1801,VALID,0,VALID,24.0058,VALID,65,VALID,0.0195313,
2010-02-20, 02:13:04,VALID,1010.58,VALID,0,VALID,92.1572,VALID,0,VALID,24.0058,VALID,20,VALID,0,
2010-02-20, 02:14:04,VALID,1010.55,VALID,0,VALID,92.1649,VALID,0,VALID,23.9845,VALID,77,VALID,0,
2010-02-20, 02:15:04,VALID,1010.54,VALID,0,VALID,92.1801,VALID,0.105969,VALID,23.9845,VALID,77,VALID,0,
2010-02-20, 02:16:04,VALID,1010.53,VALID,0,VALID,92.1801,VALID,0.105969,VALID,23.9845,VALID,64,VALID,0,
2010-02-20, 02:17:04,VALID,1010.54,VALID,0,VALID,92.1649,VALID,0.105969,VALID,24.0058,VALID,64,VALID,0,
2010-02-20, 02:18:04,VALID,1010.54,VALID,0,VALID,92.1801,VALID,0,VALID,24.0058,VALID,74,VALID,0,
2010-02-20, 02:19:04,VALID,1010.53,VALID,0,VALID,92.1801,VALID,0,VALID,23.9863,VALID,60,VALID,0,
2010-02-20, 02:20:04,VALID,1010.51,VALID,0,VALID,92.142,VALID,0,VALID,23.9863,VALID,71,VALID,0,
2010-02-20, 02:21:04,VALID,1010.5,VALID,0,VALID,92.1496,VALID,0,VALID,24.0058,VALID,37,VALID,0,
2010-02-20, 02:22:04,VALID,1010.5,VALID,0,VALID,92.1115,VALID,0,VALID,24.0058,VALID,77,VALID,0,
2010-02-20, 02:23:04,VALID,1010.5,VALID,0,VALID,92.1344,VALID,0,VALID,23.9863,VALID,80,VALID,0,
2010-02-20, 02:24:04,VALID,1010.5,VALID,0,VALID,92.1267,VALID,0.105969,VALID,24.0058,VALID,99,VALID,0,
2010-02-20, 02:25:04,VALID,1010.49,VALID,0,VALID,92.0962,VALID,0,VALID,24.0058,VALID,79,VALID,0,
2010-02-20, 02:26:04,VALID,1010.49,VALID,0,VALID,92.1191,VALID,0,VALID,23.965,VALID,68,VALID,0,
2010-02-20, 02:27:04,VALID,1010.49,VALID,0,VALID,92.1267,VALID,0,VALID,24.0058,VALID,84,VALID,0,
2010-02-20, 02:28:04,VALID,1010.52,VALID,0,VALID,92.1267,VALID,0,VALID,23.9863,VALID,82,VALID,1.34492,
2010-02-20, 02:29:04,VALID,1010.53,VALID,0,VALID,92.1344,VALID,0.105969,VALID,23.9668,VALID,70,VALID,0.855078,
2010-02-20, 02:30:04,VALID,1010.52,VALID,0,VALID,92.1115,VALID,0.105969,VALID,23.9863,VALID,59,VALID,0.457031,
2010-02-20, 02:31:04,VALID,1010.53,VALID,0,VALID,92.1039,VALID,0.105969,VALID,23.965,VALID,40,VALID,0.848437,
2010-02-20, 02:32:04,VALID,1010.51,VALID,0,VALID,92.0962,VALID,0,VALID,23.9863,VALID,21,VALID,0.95625,
2010-02-20, 02:33:04,VALID,1010.5,VALID,0,VALID,92.0962,VALID,0,VALID,23.9863,VALID,36,VALID,0.177734,
2010-02-20, 02:34:04,VALID,1010.47,VALID,0,VALID,92.081,VALID,0,VALID,24.0058,VALID,37,VALID,0.000390625,
2010-02-20, 02:35:04,VALID,1010.49,VALID,0,VALID,92.0657,VALID,0,VALID,23.9845,VALID,70,VALID,0.352734,
2010-02-20, 02:36:04,VALID,1010.44,VALID,0,VALID,92.0886,VALID,0,VALID,23.9668,VALID,58,VALID,0.638672,
2010-02-20, 02:37:04,VALID,1010.44,VALID,0,VALID,92.0733,VALID,0,VALID,23.9863,VALID,54,VALID,0.289844,
2010-02-20, 02:38:04,VALID,1010.39,VALID,0,VALID,92.0886,VALID,0,VALID,23.9863,VALID,62,VALID,0.666406,
2010-02-20, 02:39:04,VALID,1010.38,VALID,0,VALID,92.081,VALID,0,VALID,23.9668,VALID,41,VALID,0.780078,
2010-02-20, 02:40:04,VALID,1010.32,VALID,0,VALID,92.0886,VALID,0,VALID,23.9668,VALID,61,VALID,0.528125,
2010-02-20, 02:41:04,VALID,1010.35,VALID,0,VALID,92.081,VALID,0,VALID,23.9473,VALID,10,VALID,0,
2010-02-20, 02:42:04,VALID,1010.3,VALID,0,VALID,92.0657,VALID,0,VALID,23.9455,VALID,35,VALID,0.432813,
2010-02-20, 02:43:04,VALID,1010.3,VALID,0,VALID,92.0276,VALID,0,VALID,23.9473,VALID,55,VALID,0.406641,
2010-02-20, 02:44:04,VALID,1010.3,VALID,0,VALID,92.0505,VALID,0,VALID,23.9473,VALID,55,VALID,0.0695312,
2010-02-20, 02:45:04,VALID,1010.31,VALID,0,VALID,92.0428,VALID,0.105969,VALID,23.9668,VALID,45,VALID,0.435156,
2010-02-20, 02:46:04,VALID,1010.3,VALID,0,VALID,92.0657,VALID,0,VALID,23.9473,VALID,46,VALID,0.385156,
2010-02-20, 02:47:04,VALID,1010.32,VALID,0,VALID,92.0352,VALID,0,VALID,23.9473,VALID,45,VALID,0.617188,
2010-02-20, 02:48:04,VALID,1010.32,VALID,0,VALID,92.02,VALID,0.105969,VALID,23.9668,VALID,75,VALID,0.348437,
2010-02-20, 02:49:04,VALID,1010.34,VALID,0,VALID,92.0276,VALID,0.105969,VALID,23.9455,VALID,81,VALID,0.352344,
2010-02-20, 02:50:04,VALID,1010.36,VALID,0,VALID,92.0428,VALID,0,VALID,23.9668,VALID,32,VALID,0.390234,
2010-02-20, 02:51:04,VALID,1010.39,VALID,0,VALID,92.0581,VALID,0.105969,VALID,23.9473,VALID,29,VALID,0.409375,
2010-02-20, 02:52:04,VALID,1010.42,VALID,0,VALID,92.0276,VALID,0,VALID,23.926,VALID,47,VALID,0.130078,
2010-02-20, 02:53:04,VALID,1010.48,VALID,0,VALID,92.0276,VALID,0.105969,VALID,23.9668,VALID,289,VALID,0.294922,
2010-02-20, 02:54:04,VALID,1010.54,VALID,0,VALID,92.0047,VALID,0,VALID,23.9473,VALID,289,VALID,0,
2010-02-20, 02:55:04,VALID,1010.55,VALID,0,VALID,92.0123,VALID,0,VALID,23.9473,VALID,82,VALID,0.428906,
2010-02-20, 02:56:04,VALID,1010.58,VALID,0,VALID,92.0352,VALID,0,VALID,23.9278,VALID,82,VALID,0.301172,
2010-02-20, 02:57:04,VALID,1010.61,VALID,0,VALID,92.0352,VALID,0,VALID,23.9473,VALID,165,VALID,0.0445312,
2010-02-20, 02:58:04,VALID,1010.63,VALID,0,VALID,92.0276,VALID,0,VALID,23.926,VALID,166,VALID,0,
2010-02-20, 02:59:04,VALID,1010.66,VALID,0,VALID,91.9895,VALID,0,VALID,23.965,VALID,166,VALID,0,
2010-02-20, 03:00:04,VALID,1010.65,VALID,0,VALID,91.9742,VALID,0,VALID,23.965,VALID,124,VALID,0.053125,
2010-02-20, 03:01:04,VALID,1010.64,VALID,0,VALID,91.959,VALID,0,VALID,23.9863,VALID,124,VALID,0,
2010-02-20, 03:02:04,VALID,1010.63,VALID,0,VALID,91.9513,VALID,0.105969,VALID,23.9863,VALID,58,VALID,0,
2010-02-20, 03:03:04,VALID,1010.64,VALID,0,VALID,91.9818,VALID,0,VALID,23.9863,VALID,58,VALID,0,
2010-02-20, 03:04:04,VALID,1010.63,VALID,0,VALID,91.9895,VALID,0,VALID,23.9668,VALID,58,VALID,0,
2010-02-20, 03:05:04,VALID,1010.65,VALID,0,VALID,91.9818,VALID,0,VALID,23.9668,VALID,80,VALID,0.813672,
2010-02-20, 03:06:04,VALID,1010.67,VALID,0,VALID,91.9895,VALID,0,VALID,23.9668,VALID,72,VALID,0.0636719,
2010-02-20, 03:07:04,VALID,1010.69,VALID,0,VALID,91.9895,VALID,0,VALID,23.9668,VALID,54,VALID,0.320313,
2010-02-20, 03:08:04,VALID,1010.74,VALID,0,VALID,91.9742,VALID,0,VALID,23.9863,VALID,82,VALID,0.773828,
2010-02-20, 03:09:04,VALID,1010.73,VALID,0,VALID,91.9666,VALID,0,VALID,23.9863,VALID,77,VALID,0.814453,
2010-02-20, 03:10:04,VALID,1010.76,VALID,0,VALID,91.9818,VALID,0,VALID,23.9668,VALID,41,VALID,0.403125,
2010-02-20, 03:11:04,VALID,1010.76,VALID,0,VALID,91.9666,VALID,0,VALID,23.9863,VALID,92,VALID,0.109375,
2010-02-20, 03:12:04,VALID,1010.77,VALID,0,VALID,91.9666,VALID,0,VALID,23.9863,VALID,89,VALID,0.349219,
2010-02-20, 03:13:04,VALID,1010.79,VALID,0,VALID,91.9513,VALID,0,VALID,23.9863,VALID,66,VALID,0,
2010-02-20, 03:14:04,VALID,1010.83,VALID,0,VALID,91.9513,VALID,0,VALID,24.0058,VALID,69,VALID,0.506641,
2010-02-20, 03:15:04,VALID,1010.8,VALID,0,VALID,91.9818,VALID,0,VALID,24.0058,VALID,115,VALID,0.517969,
2010-02-20, 03:16:04,VALID,1010.85,VALID,0,VALID,91.9818,VALID,0,VALID,23.9863,VALID,113,VALID,0.363281,
2010-02-20, 03:17:04,VALID,1010.84,VALID,0,VALID,91.9742,VALID,0,VALID,23.9845,VALID,80,VALID,0.267578,
2010-02-20, 03:18:04,VALID,1010.85,VALID,0,VALID,91.959,VALID,0,VALID,24.0058,VALID,108,VALID,0.510938,
2010-02-20, 03:19:04,VALID,1010.85,VALID,0,VALID,91.9513,VALID,0,VALID,23.9845,VALID,75,VALID,0.178906,
2010-02-20, 03:20:04,VALID,1010.86,VALID,0,VALID,91.9742,VALID,0,VALID,24.0058,VALID,84,VALID,0,
2010-02-20, 03:21:04,VALID,1010.87,VALID,0,VALID,91.9361,VALID,0,VALID,24.0235,VALID,116,VALID,0.000390625,
2010-02-20, 03:22:04,VALID,1010.86,VALID,0,VALID,91.9513,VALID,0.105969,VALID,24.0253,VALID,99,VALID,0.510938,
2010-02-20, 03:23:04,VALID,1010.86,VALID,0,VALID,91.9361,VALID,0,VALID,24.0253,VALID,89,VALID,0.180469,
2010-02-20, 03:24:04,VALID,1010.89,VALID,0,VALID,91.9437,VALID,0,VALID,24.0253,VALID,89,VALID,0.251172,
2010-02-20, 03:25:04,VALID,1010.86,VALID,0,VALID,91.9513,VALID,0,VALID,24.0253,VALID,98,VALID,0,
2010-02-20, 03:26:04,VALID,1010.87,VALID,0,VALID,91.9666,VALID,0,VALID,24.0253,VALID,79,VALID,0.487891,
2010-02-20, 03:27:04,VALID,1010.85,VALID,0,VALID,91.9513,VALID,0,VALID,24.0058,VALID,81,VALID,0.503125,
2010-02-20, 03:28:04,VALID,1010.85,VALID,0,VALID,91.9437,VALID,0,VALID,24.0253,VALID,70,VALID,0.583984,
2010-02-20, 03:29:04,VALID,1010.85,VALID,0,VALID,91.9513,VALID,0.105969,VALID,24.0253,VALID,70,VALID,0,
2010-02-20, 03:30:04,VALID,1010.86,VALID,0,VALID,91.9132,VALID,0,VALID,24.0058,VALID,91,VALID,0.555078,
2010-02-20, 03:31:04,VALID,1010.84,VALID,0,VALID,91.9208,VALID,0,VALID,24.004,VALID,75,VALID,0.38125,
2010-02-20, 03:32:04,VALID,1010.85,VALID,0,VALID,91.9056,VALID,0,VALID,24.0448,VALID,75,VALID,0,
2010-02-20, 03:33:04,VALID,1010.84,VALID,0,VALID,91.9285,VALID,0,VALID,24.004,VALID,75,VALID,0.0503906,
2010-02-20, 03:34:04,VALID,1010.86,VALID,0,VALID,91.9513,VALID,0,VALID,24.0253,VALID,65,VALID,0.145313,
2010-02-20, 03:35:04,VALID,1010.85,VALID,0,VALID,91.9361,VALID,0,VALID,24.0253,VALID,69,VALID,0,
2010-02-20, 03:36:04,VALID,1010.87,VALID,0,VALID,91.9132,VALID,0,VALID,24.0253,VALID,105,VALID,0,
2010-02-20, 03:37:04,VALID,1010.84,VALID,0,VALID,91.9208,VALID,0,VALID,24.0448,VALID,101,VALID,0,
2010-02-20, 03:38:04,VALID,1010.83,VALID,0,VALID,91.9285,VALID,0,VALID,24.0253,VALID,97,VALID,0,
2010-02-20, 03:39:04,VALID,1010.83,VALID,0,VALID,91.9285,VALID,0,VALID,24.004,VALID,59,VALID,0,
2010-02-20, 03:40:04,VALID,1010.82,VALID,0,VALID,91.9056,VALID,0,VALID,24.0253,VALID,89,VALID,0,
2010-02-20, 03:41:04,VALID,1010.8,VALID,0,VALID,91.9132,VALID,0,VALID,24.0253,VALID,79,VALID,0,
2010-02-20, 03:42:04,VALID,1010.79,VALID,0,VALID,91.9208,VALID,0.105969,VALID,24.0253,VALID,88,VALID,0,
2010-02-20, 03:43:04,VALID,1010.79,VALID,0,VALID,91.9132,VALID,0,VALID,24.0253,VALID,87,VALID,0,
2010-02-20, 03:44:04,VALID,1010.78,VALID,0,VALID,91.9437,VALID,0.105969,VALID,24.0058,VALID,65,VALID,0,
2010-02-20, 03:45:04,VALID,1010.76,VALID,0,VALID,91.9285,VALID,0,VALID,24.0466,VALID,72,VALID,0,
2010-02-20, 03:46:04,VALID,1010.77,VALID,0,VALID,91.9285,VALID,0,VALID,24.0058,VALID,93,VALID,0,
2010-02-20, 03:47:04,VALID,1010.74,VALID,0,VALID,91.9208,VALID,0,VALID,24.0058,VALID,93,VALID,0,
2010-02-20, 03:48:04,VALID,1010.77,VALID,0,VALID,91.9285,VALID,0,VALID,24.0058,VALID,90,VALID,0,